Location: Cicognara
(44.9500°N, 10.4667°E)
Time: 07:39:28
(UTC+00:00)

Cosmos 1544 Rocket - Pass Details

Date: 20 June 2021
Orbit: 603 x 632 km, 82.5° (Epoch: 05 August)

Event Time Altitude Azimuth Distance (km) Brightness Sun altitude
Rises 19:51:46 0° 359° (N) 2,934 7.8 -6.8°
Reaches altitude 10° 19:54:12 10° 9° (N) 2,019 6.7 -7.1°
Maximum altitude 19:58:16 34° 74° (ENE) 1,041 4.5 -7.6°
Enters shadow 20:02:16 10° 140° (SE) 1,977 5.5 -8.1°
